Weather History for Middletown, PA

Change the Weather History Date:

Monday, July 8, 2013

  Actual Average Record
Temperature  
Mean Temperature 75 °F 76 °F  
Max Temperature 83 °F 86 °F 101 °F (1988)
Min Temperature 67 °F 66 °F 53 °F (1983)
Degree Days  
Heating Degree Days 0 0  
Month to date heating degree days 0 0  
Since 1 June heating degree days 2 18  
Since 1 July heating degree days 0 0  
Cooling Degree Days 10 11  
Month to date cooling degree days 114 86  
Year to date cooling degree days 421 364  
Since 1 June cooling degree days 338 299  
Growing Degree Days 24 (Base 50)    
Moisture  
Dew Point 67 °F    
Average Humidity 74    
Maximum Humidity 90    
Minimum Humidity 58    
Precipitation  
Precipitation 0.84 in 0.15 in 2.84 in (1998)
Month to date precipitation 1.30 1.14  
Year to date precipitation 17.23 20.27  
Sea Level Pressure  
Sea Level Pressure 30.07 in    
Wind  
Wind Speed 3 mph (WNW)    
Max Wind Speed 36 mph    
Max Gust Speed 47 mph    
Visibility 8 miles    
Events Fog , Rain , Thunderstorm    
T = Trace of Precipitation, MM = Missing Value Source: NWS Daily Summary

Daily Weather History Graph

Daily Weather History Graph

Search for Another Location

Airport:

Trip Planner

Search our weather history database for the weather conditions in past years. The results will help you decide how hot, cold, wet, or windy it might be!

Date:

Astronomy

Jul. 08, 2013 Rise Set
Actual Time 5:45 AM EDT 8:38 PM EDT
Civil Twilight 5:12 AM EDT 9:11 PM EDT
Nautical Twilight 4:31 AM EDT 9:51 PM EDT
Astronomical Twilight 3:44 AM EDT 10:39 PM EDT
Moon 6:12 AM EDT (7/8) 8:39 PM EDT (7/8)
Length of Visible Light 15h 58m
Length of Day
14h 53m
New Moon, 0% of the Moon is Illuminated
Jul 8
New Moon
Jul 15
First Quarter
Jul 22
Full
Jul 29
Last Quarter
Aug 6
New

Hourly Weather History & Observations

Time (EDT) Temp. Heat Index Dew Point Humidity Pressure Visibility Wind Dir Wind Speed Gust Speed Precip Events Conditions
12:56 AM 70.0 °F - 66.0 °F 87% 30.04 in 10.0 mi WNW 6.9 mph - N/A   Scattered Clouds
1:56 AM 70.0 °F - 66.9 °F 90% 30.04 in 10.0 mi WNW 5.8 mph - N/A   Mostly Cloudy
2:56 AM 70.0 °F - 66.9 °F 90% 30.04 in 7.0 mi NW 6.9 mph - N/A   Mostly Cloudy
3:56 AM 69.1 °F - 66.0 °F 90% 30.04 in 7.0 mi NW 4.6 mph - N/A   Mostly Cloudy
4:56 AM 70.0 °F - 66.0 °F 87% 30.05 in 7.0 mi WNW 3.5 mph - N/A   Scattered Clouds
5:56 AM 69.1 °F - 66.0 °F 90% 30.06 in 7.0 mi Calm Calm - N/A   Mostly Cloudy
6:39 AM 69.8 °F - 66.2 °F 88% 30.06 in 6.0 mi Calm Calm - N/A   Mostly Cloudy
6:56 AM 70.0 °F - 66.0 °F 87% 30.07 in 7.0 mi West 3.5 mph - N/A   Mostly Cloudy
7:56 AM 71.1 °F - 66.9 °F 87% 30.08 in 7.0 mi WNW 4.6 mph - N/A   Mostly Cloudy
8:56 AM 73.9 °F - 68.0 °F 82% 30.09 in 8.0 mi NW 5.8 mph - N/A   Mostly Cloudy
9:56 AM 75.9 °F - 68.0 °F 76% 30.09 in 8.0 mi WNW 3.5 mph - N/A   Mostly Cloudy
10:56 AM 79.0 °F - 68.0 °F 69% 30.09 in 8.0 mi WNW 6.9 mph - N/A   Scattered Clouds
11:56 AM 81.0 °F 83.0 °F 66.0 °F 60% 30.08 in 9.0 mi West 4.6 mph - N/A   Mostly Cloudy
12:56 PM 81.0 °F 82.7 °F 64.9 °F 58% 30.06 in 9.0 mi WNW 4.6 mph - N/A   Partly Cloudy
1:33 PM 71.6 °F - 64.4 °F 78% 30.11 in 0.8 mi West 34.5 mph 47.2 mph 0.02 in Rain , Thunderstorm Light Thunderstorms and Rain
1:37 PM 69.8 °F - 64.4 °F 83% 30.13 in 0.2 mi West 19.6 mph 47.2 mph 0.15 in Fog , Rain , Thunderstorm Light Thunderstorms and Rain
1:53 PM 66.2 °F - 64.4 °F 94% 30.09 in 1.0 mi NNE 6.9 mph - 0.76 in Rain , Thunderstorm Heavy Thunderstorms and Rain
1:56 PM 66.9 °F - 64.0 °F 90% 30.09 in 3.0 mi NNE 3.5 mph - 0.81 in Rain , Thunderstorm Thunderstorms and Rain
2:13 PM 69.8 °F - 64.4 °F 83% 30.08 in 9.0 mi Calm Calm - 0.01 in Rain , Thunderstorm Light Thunderstorms and Rain
2:28 PM 69.8 °F - 64.4 °F 83% 30.08 in 6.0 mi South 3.5 mph - 0.01 in Rain Light Rain
2:56 PM 73.0 °F - 68.0 °F 84% 30.08 in 10.0 mi ESE 3.5 mph - 0.03 in   Mostly Cloudy
3:56 PM 79.0 °F - 70.0 °F 74% 30.04 in 10.0 mi Calm Calm - N/A   Scattered Clouds
4:56 PM 82.9 °F 85.8 °F 68.0 °F 60% 30.03 in 10.0 mi Calm Calm - N/A   Scattered Clouds
5:56 PM 77.0 °F - 70.0 °F 79% 30.03 in 9.0 mi Calm Calm - N/A   Mostly Cloudy
6:56 PM 79.0 °F - 69.1 °F 72% 30.03 in 10.0 mi Calm Calm - 0.00 in Rain Light Rain
7:56 PM 78.1 °F - 70.0 °F 76% 30.04 in 9.0 mi Calm Calm - 0.00 in   Mostly Cloudy
8:56 PM 75.9 °F - 69.1 °F 79% 30.05 in 10.0 mi Calm Calm - N/A   Scattered Clouds
9:56 PM 73.9 °F - 70.0 °F 87% 30.06 in 9.0 mi WNW 3.5 mph - N/A   Mostly Cloudy
10:56 PM 75.0 °F - 70.0 °F 84% 30.07 in 9.0 mi Calm Calm - N/A   Mostly Cloudy
11:56 PM 75.0 °F - 69.1 °F 82% 30.07 in 9.0 mi Calm Calm - N/A   Mostly Cloudy